User: anonymous   Login
Location: Unspecified
(0.0000°N, 0.0000°E)
Time: 14:14:48
(UTC+00:00)
Language:

COSMOS 2438 - Orbit

View from above orbital plane
View from above orbital plane
View from above satellite
View from above satellite

Ground track
Ground track

The orbit data is extracted from the following two-line orbital elements,

1 32955U 08025C   18267.71226891 -.00000012 +00000-0 -15770-3 0  9997
2 32955 082.5012 309.2372 0020785 349.9826 140.2408 12.43303828469241
Epoch (UTC): 24 September 2018 17:05:40
Eccentricity: 0.0020785
inclination: 82.5012°
perigee height: 1476 km
apogee height: 1509 km
right ascension of ascending node: 309.2372°
argument of perigee: 349.9826°
revolutions per day: 12.43303828
mean anomaly at epoch: 140.2408°
orbit number at epoch: 46924

The dashed part of the orbit path shows where the satellite is in the earth's shadow,  

DLR